Home   Weather   Medina   Past weeks

Flag for Saudi Arabia Past Weather in Medina, Saudi Arabia — Yesterday and Last 2 Weeks

Now
73 °F

Clear.


Feels Like: 76 °F
Forecast: 53 / 79 °F
Wind: 5 mph from East

Location: Madinah

Current Time: Dec 7, 2016 at 9:23:08 pm

Latest Report: Dec 7, 2016 at 9:00 pm


Visibility: 10 mi

Pressure: 30.15 "Hg (28.11 "Hg at 606m altitude)

Humidity: 27%

Dew Point: 37 °F

Location of MedinaLocation

Past Weather in Medina — Graph

°F

Medina Temperature Yesterday

Maximum temperature yesterday: 84 °F (at 3:00 pm)
Minimum temperature yesterday: 63 °F (at 7:00 am)
Average temperature yesterday: 75 °F

High & Low Weather Summary for the Past Weeks

 TemperatureHumidityPressure
High90 °F (Dec 5, 4:00 pm)100% (Dec 2, 6:00 am)30.27 "Hg (Dec 2, 6:00 am)
Low55 °F (Nov 25, 7:00 am)7% (Nov 24, 2:00 pm)29.92 "Hg (Dec 1, 2:00 pm)
Average73 °F36%30.08 "Hg
* Reported Nov 22 8:00 pm — Dec 7 8:00 pm, Medina, Weather by CustomWeather, © 2016

Note: Actual official high and low records may vary slightly from our data, if they occured in-between our weather recording intervals... More about our weather records

Advertising

Medina Weather History for the Previous 24 Hours

Scroll right to see more
 ConditionsComfort  
Time TempWeatherWind HumidityBarometerVisibility
8:00 pm
Wed, Dec 7
75 °FClear.7 mph24%30.15 "Hg10 mi
7:00 pm77 °FClear.3 mph24%30.12 "Hg10 mi
6:00 pm77 °FClear.3 mph22%30.12 "Hg10 mi
5:00 pm79 °FSunny.7 mph23%30.09 "Hg10 mi
4:00 pm79 °FSunny.6 mph23%30.09 "Hg10 mi
3:00 pm77 °FSunny.7 mph22%30.12 "Hg10 mi
2:00 pm75 °FSunny.6 mph24%30.12 "Hg10 mi
1:00 pm73 °FSunny.8 mph25%30.15 "Hg10 mi
12:00 pm70 °FSunny.9 mph29%30.18 "Hg10 mi
11:00 am68 °FSunny.10 mph33%30.21 "Hg10 mi
10:00 am64 °FSunny.7 mph34%30.24 "Hg10 mi
9:00 am61 °FSunny.10 mph39%30.24 "Hg4 mi
8:00 am61 °FSunny.10 mph42%30.24 "Hg4 mi
7:00 am61 °FSunny.14 mph42%30.21 "Hg4 mi
6:00 am61 °FClear.14 mph45%30.18 "Hg10 mi
5:00 am63 °FClear.15 mph42%30.18 "Hg10 mi
4:00 am63 °FClear.15 mph42%30.15 "Hg10 mi
3:00 am64 °FClear.15 mph40%30.15 "Hg10 mi
2:00 am66 °FClear.16 mph37%30.15 "Hg10 mi
1:00 am68 °FClear.16 mph38%30.15 "Hg10 mi
12:00 am72 °FClear.14 mph33%30.15 "Hg5 mi
11:00 pm
Tue, Dec 6
73 °FClear.3 mph29%30.12 "Hg10 mi
10:00 pm77 °FClear.No wind28%30.09 "Hg10 mi
9:00 pm77 °FClear.No wind22%30.09 "Hg10 mi
Weather by CustomWeather, © 2016

See weather overviewHow to use our weather pages